Regional Weather Roundup
Issued by NWS

Home | Current Version | Previous Version | Text Only | Print | Product List | Glossary Off
Versions: 1 2 3 4 5 6 7 8 9 10 11 12 13 14 15 16 17 18 19 20 21 22 23 24 25 26 27

000
ASUS45 KBOU 210807
RWRCO

WEATHER ROUNDUP FOR COLORADO
NATIONAL WEATHER SERVICE DENVER/BOULDER CO
200 AM MDT MON AUG 21 2017

NOTE: "FAIR" INDICATES FEW OR NO CLOUDS BELOW 12000 FEET WITH NO
SIGNIFICANT WEATHER AND/OR OBSTRUCTIONS TO VISIBILITY.

COZ001>005-013-030-031-210900-
...NORTHWEST COLORADO...

CITY           SKY/WX    TMP DP  RH WIND       PRES   REMARKS
CRAIG          FAIR      53  42  66 CALM      30.22S
HAYDEN         FAIR      56  38  50 E10       30.25F
MEEKER         FAIR      60  39  45 E5        30.23S
RABBIT EARS PA FAIR      50  36  57 SW6       30.53S
STEAMBOAT SPGS FAIR      52  40  62 CALM      30.27S
WALDEN         FAIR      41  32  70 SE10      30.36F
$$

COZ006>008-011-210900-
...WEST CENTRAL VALLEYS...

CITY           SKY/WX    TMP DP  RH WIND       PRES   REMARKS
GRAND JUNCTION FAIR      74  38  27 SE12      30.08R
MONTROSE       FAIR      71  39  31 SE10      30.19R
EAGLE          FAIR      59  36  42 E6        30.27S
RIFLE          FAIR      61  36  39 SE6       30.16R
DELTA          FAIR      69  39  33 E3        30.13S
NUCLA          FAIR      64  37  36 E9        30.25S
$$

COZ017>023-064>068-210900-
...SOUTHWEST COLORADO...

CITY           SKY/WX    TMP DP  RH WIND       PRES   REMARKS
DURANGO        MOCLDY    60  45  57 CALM      30.29F
CORTEZ         FAIR      58  51  78 CALM      30.23F
PAGOSA SPRINGS CLOUDY    57  42  56 CALM      30.36S
TELLURIDE      FAIR      54  39  58 SE5       30.45S
WOLF CREEK PAS CLOUDY    46  32  57 E5        30.67S
$$

COZ009-010-012-014-032>034-037-058>063-210900-
...CENTRAL COLORADO...

CITY           SKY/WX    TMP DP  RH WIND       PRES   REMARKS
ASPEN          FAIR      55  38  52 S5        30.32R
BUENA VISTA    FAIR      51  41  68 NW6       30.39F
COPPER MTN     FAIR      54  32  43 S10       30.64S
BERTHOUD PASS  FAIR      43  37  81 W8        30.66F
COTTONWOOD PAS FAIR      55  37  50 NW3       30.51F
GUNNISON       FAIR      53  39  59 N7        30.35S
KREMMLING      FAIR      54  41  62 CALM      30.33R
LEADVILLE      FAIR      46  35  65 CALM      30.50S
MONARCH PASS   FAIR      46  34  61 S10G17    30.74F
SALIDA         FAIR      58  44  58 W10       30.43F
SUNLIGHT       FAIR      50  32  50 E5        30.57S
WILKERSON PASS FAIR      46  36  66 SW9       30.61S
$$

COZ069>075-210900-
...SAN LUIS VALLEY/SANGRE DE CRISTO MOUNTAINS...

CITY           SKY/WX    TMP DP  RH WIND       PRES   REMARKS
ALAMOSA        CLOUDY    58  46  64 SE3       30.32F
DEL NORTE      CLOUDY    57  44  62 CALM      30.38S
LA VETA PASS   NOT AVBL
SAGUACHE       FAIR      55  43  62 NW5       30.38S
$$

COZ035-036-038>040-210900-
...NORTHERN COLORADO FRONT RANGE...

CITY           SKY/WX    TMP DP  RH WIND       PRES   REMARKS
DENVER INTL AP MOCLDY    69  43  38 SW10      30.12F
DMNS CITY PARK   N/A     67  45  44 SE8       30.11F
AURORA         MOCLDY    66  45  45 S9        30.14F
FRONT RANGE AP FAIR      68  45  42 SW10      30.14F
ERIE MUNI ARPT FAIR      61  46  59 CALM      30.15F
BOULDER MUN AP FAIR      73  37  27 SW8       30.10F
CENTENNIAL     FAIR      69  43  38 SW9       30.15F
BROOMFIELD     NOT AVBL
FORT COLLINS   FAIR      64  52  64 N6        30.10S
LONGMONT       FAIR      65  46  50 NW5       30.11S
$$

COZ041-046-047-076>085-087-088-210900-
...PIKES PEAK/PALMER DIVIDE AND SOUTHERN FOOTHILLS...

CITY           SKY/WX    TMP DP  RH WIND       PRES   REMARKS
COLO. SPRINGS  FAIR      65  45  48 NW8       30.18F
A. F. ACADEMY  FAIR      58  45  62 N7        30.21F
SCHRIEVER AFB  FAIR      71  36  27 NW10      30.18F
CHEYENNE MTN   MOCLDY    70  36  28 W6        30.18F
ELLICOTT       NOT AVBL
FALCON         FAIR      62  40  44 NW9       30.24S
FORT CARSON    FAIR      62  46  56 N13       30.14F
LIMON          FAIR      57  49  74 NW6       30.12F
MONUMENT HILL  FAIR      57  41  54 W9        30.27S
CANON CITY     CLEAR     73  46  38 W18G30    30.13F
WALSENBURG     FAIR      70  45  40 W14       30.18F
TRINIDAD       FAIR      66  48  52 SW8       30.18S
$$

COZ042>045-048>051-090-091-210900-
...NORTHEAST COLORADO...

CITY           SKY/WX    TMP DP  RH WIND       PRES   REMARKS
GREELEY ARPT   FAIR      60  57  89 W3        30.07F
AKRON          FAIR      64  60  87 SW8       30.06S
BURLINGTON     FAIR      67  62  84 S5        30.03F
WRAY           NOT AVBL
YUMA           FAIR      61  50  67 SW7       30.02F
STERLING       FAIR      64  63  94 CALM      30.02S
HOLYOKE        FOG       64  63  94 CALM      30.01F VSB 3/4
FORT MORGAN    FAIR      65  59  82 SW3       30.06S
$$

COZ086-089-092>099-210900-
...SOUTHEAST COLORADO...

CITY           SKY/WX    TMP DP  RH WIND       PRES   REMARKS
PUEBLO         FAIR      72  47  40 W8        30.06F
LA JUNTA       FAIR      68  51  54 SW8       30.04F
LAMAR          FAIR      72  60  66 S10       29.99S
SPRINGFIELD      N/A     68  57  68 S18G24    30.10F
$$




USA.gov is the U.S. government's official web portal to all federal, state and local government web resources and services.